Location: Caltech
(34.1382°N, 118.1253°W)
Time: 11:52:23
(UTC-07:00)

Cosmos 1697 Rocket - Visible Passes

Search period start: 02 September 2014 00:00
Search period end: 12 September 2014 00:00
Orbit: 833 x 844 km, 71.0° (Epoch: 01 September)

Date Brightness Start Highest point End Pass type
(mag) Time Alt. Az. Time Alt. Az. Time Alt. Az.
02 Sep 5.4 01:58:56 13° NE 01:58:56 13° NE 01:59:33 10° NE visible
02 Sep 4.7 03:40:41 17° NNW 03:40:41 17° NNW 03:42:36 10° N visible
03 Sep 5.6 01:43:24 10° NE 01:43:24 10° NE 01:43:26 10° NE visible
03 Sep 4.9 03:25:08 16° NNW 03:25:08 16° NNW 03:26:41 10° N visible
04 Sep 5.0 03:09:34 15° NNW 03:09:34 15° NNW 03:10:45 10° N visible
05 Sep 5.2 02:53:59 14° N 02:53:59 14° N 02:54:48 10° N visible
06 Sep 5.3 02:38:22 12° N 02:38:22 12° N 02:38:51 10° N visible
07 Sep 5.5 02:22:43 11° N 02:22:43 11° N 02:22:53 10° N visible
